Wind_Speed
41 39 36 31 30 29 23 28 52 75 80 77 77 79 82 86 87 91 92 102 100 102 109 111 113 106 103 92 93 101 99 91 89 85 82 84 78 81 79 73 78 80 75 75 64
41 41 41 38 32 30 28 22 33 61 77 78 77 79 81 82 86 87 92 96 101 102 104 108 112 114 107 100 100 94 97 93 96 95 92 91 93 88 85 81 79 80 75 75 75
43 43 42 40 38 34 29 27 23 39 67 77 77 77 80 81 82 88 89 90 94 99 101 103 106 109 113 113 111 108 90 93 93 100 103 102 92 94 85 83 84 84 81 78 78
41 38 37 37 36 34 33 30 29 27 42 68 77 77 79 81 79 86 88 90 93 94 96 98 99 103 107 106 106 116 108 107 101 97 107 105 107 102 100 90 92 90 90 87 82
39 39 39 37 37 36 35 34 33 33 35 43 65 76 78 79 79 83 85 88 92 94 94 96 97 102 102 105 108 104 103 108 112 114 106 99 102 102 105 98 93 88 86 88 90
40 40 36 35 33 35 36 36 38 38 39 42 45 59 75 77 81 81 84 87 88 91 96 98 98 97 100 102 101 104 103 107 105 109 113 116 113 109 101 104 102 98 94 95 91
27 27 26 29 30 31 33 36 38 42 43 45 47 49 53 64 78 81 85 86 90 91 92 96 98 100 100 102 102 101 101 103 105 105 110 112 110 107 99 105 107 107 107 109 103
27 29 29 26 24 24 27 32 35 39 46 47 48 49 51 56 59 70 81 87 90 92 95 96 96 98 103 105 107 108 106 103 97 107 105 117 113 104 98 104 104 102 101 101 100
29 28 24 20 17 14 18 22 29 35 40 47 51 52 51 57 55 59 64 72 84 92 95 97 98 101 102 105 107 108 108 112 107 106 108 118 107 99 101 101 104 104 103 103 101
29 27 22 19 20 21 22 23 23 29 33 40 47 52 54 56 59 61 63 67 70 74 86 97 99 102 104 107 103 109 112 112 109 113 119 122 116 98 100 101 101 103 104 102 101
27 26 23 19 20 20 21 22 24 27 26 29 36 42 45 52 55 60 65 68 70 73 76 79 88 100 106 107 107 111 112 107 107 116 127 131 121 105 104 100 99 101 106 105 103
30 26 26 23 21 20 20 22 23 25 27 30 30 34 35 39 44 49 55 62 68 73 78 81 82 86 94 104 109 112 113 110 110 113 122 123 124 112 114 111 111 110 108 104 102
33 30 27 26 26 26 23 20 22 24 26 30 35 38 40 43 44 48 49 53 59 64 70 77 82 87 91 92 98 108 113 114 117 120 123 118 119 115 112 112 114 114 115 111 104
33 30 29 30 27 27 26 28 30 33 31 37 38 41 42 45 46 49 51 55 59 63 68 71 77 82 87 92 100 101 104 108 116 119 121 122 123 117 108 107 110 114 113 115 111
31 29 28 31 32 30 30 30 32 33 33 35 36 39 41 43 46 49 49 52 58 62 66 69 74 81 82 86 96 101 104 108 109 112 116 120 124 111 113 110 111 109 111 115 116
29 28 27 29 32 32 34 35 36 35 37 36 41 41 44 46 47 50 54 56 59 62 67 70 75 81 81 86 93 96 100 106 109 113 112 106 116 110 114 111 113 113 114 113 113
25 27 28 28 30 32 33 36 38 42 42 44 47 47 48 47 48 52 55 58 63 67 72 74 78 81 82 86 90 94 94 99 104 107 105 107 118 105 99 108 112 114 116 114 110
23 26 29 30 31 33 32 36 42 44 46 47 51 52 53 53 54 55 58 61 66 70 72 73 74 78 80 83 80 83 92 94 96 100 97 103 107 96 95 96 100 103 108 111 111
25 24 27 29 31 33 35 38 41 44 46 51 54 56 58 60 60 61 61 62 63 64 64 66 65 67 68 70 71 75 81 85 86 83 89 92 91 89 88 89 94 99 103 103 102
30 25 25 28 32 35 38 40 43 45 49 54 57 59 61 65 66 63 62 60 58 61 60 56 51 53 55 55 60 61 71 73 74 70 77 80 79 78 80 82 84 90 94 99 97
42 35 30 30 33 35 37 41 46 46 50 56 59 60 62 64 61 60 56 53 54 54 51 44 42 42 44 46 47 52 56 61 65 64 62 63 62 71 72 70 72 76 84 93 87
55 47 39 34 35 37 41 45 49 49 51 56 58 59 57 58 53 49 46 48 46 43 41 39 35 35 35 38 40 42 46 51 50 56 50 49 54 57 58 57 64 75 71 79 77
65 64 56 48 40 36 38 42 44 47 47 48 48 47 48 48 46 42 44 45 42 37 32 32 29 29 29 33 34 36 36 38 41 44 42 40 42 49 55 60 65 64 76 66 48
74 69 66 62 57 51 45 41 40 39 39 38 38 40 41 40 35 42 44 41 35 32 27 24 24 26 25 27 24 25 20 28 33 36 37 36 38 41 49 55 49 58 56 53 60
77 76 75 71 66 61 53 45 38 34 30 31 36 37 37 34 34 40 42 34 29 24 20 18 18 19 19 19 17 17 16 24 26 31 32 36 43 43 49 48 51 57 45 58 62
78 80 81 73 73 67 59 51 39 33 29 28 32 34 31 31 38 38 38 30 24 22 20 18 15 13 12 13 10 14 18 24 27 29 29 35 44 50 52 51 36 37 49 59 59
78 80 82 81 74 71 62 54 45 38 29 31 31 30 27 32 35 39 35 27 22 21 19 17 14 12 10 9 5 9 18 27 27 31 32 40 49 49 44 29 41 50 52 51 51
Wind_Direction
300 301 303 306 309 315 316 260 234 228 228 230 230 230 230 229 229 230 230 230 229 232 231 229 230 232 232 233 240 240 241 241 244 244 243 241 247 248 248 246 245 246 245 249 254
297 297 297 297 296 299 301 295 248 231 229 230 230 231 231 232 232 231 232 231 232 232 235 232 231 233 232 234 237 238 243 240 240 240 242 246 245 246 251 245 242 245 245 247 254
292 292 292 293 291 287 285 280 273 242 231 231 232 232 232 233 232 234 232 233 233 235 236 238 236 235 236 237 239 239 235 238 239 239 239 240 242 249 249 241 243 248 246 250 256
291 290 289 288 286 282 277 267 259 253 239 233 234 235 235 234 233 237 234 234 235 235 236 237 239 240 238 238 240 240 240 242 242 242 242 244 244 245 251 246 247 247 250 255 257
288 287 285 282 278 275 271 262 257 249 243 239 236 237 237 237 237 238 238 237 237 237 237 237 237 239 241 240 241 240 243 242 243 243 244 245 246 246 247 247 247 245 247 252 254
290 287 283 281 275 268 262 259 253 252 246 240 238 238 238 240 239 239 239 240 240 239 239 239 238 238 239 241 241 241 239 241 242 245 246 246 244 245 250 250 249 250 252 254 257
310 304 297 285 277 266 259 255 252 250 250 247 242 239 238 241 241 241 241 240 241 241 241 241 241 239 237 238 241 241 242 243 244 243 245 245 243 247 248 252 250 249 250 252 250
311 305 302 291 274 260 261 256 252 251 248 245 248 246 244 244 241 242 242 242 242 242 241 241 242 241 241 239 239 239 240 239 241 243 244 246 245 246 246 247 249 249 251 253 253
318 317 305 294 274 267 275 268 260 255 250 248 248 247 247 249 247 245 245 245 245 245 244 243 243 242 243 243 242 242 239 239 237 239 243 246 247 245 245 246 248 248 247 247 251
316 319 307 301 296 291 285 279 265 259 254 251 249 249 250 251 252 252 250 248 246 244 246 245 245 244 244 243 243 244 243 240 237 238 241 242 246 241 242 244 248 249 249 250 251
321 314 311 304 298 294 290 282 280 275 269 265 259 254 248 250 249 252 252 251 251 251 251 249 248 246 245 244 245 244 245 243 243 240 243 243 244 237 241 242 246 250 253 253 253
315 310 302 298 298 298 290 279 277 274 276 274 270 269 264 259 258 255 255 255 255 254 252 251 250 250 249 247 246 246 246 245 243 243 245 243 244 240 241 241 243 246 247 252 254
309 305 302 299 292 288 285 282 282 280 278 275 272 269 269 268 266 264 261 260 258 255 253 252 253 252 251 250 249 248 247 245 245 244 245 246 245 244 242 241 243 245 246 247 246
299 296 297 295 296 291 288 281 279 281 281 282 276 274 272 272 270 270 269 266 263 261 260 258 255 253 252 251 250 248 249 247 247 246 246 246 246 246 244 243 243 243 245 246 248
290 288 285 290 293 295 293 289 285 283 278 277 277 280 278 278 277 275 271 270 271 270 266 264 260 257 256 254 252 250 250 249 247 246 246 248 249 243 245 244 243 244 245 244 245
283 280 278 278 286 288 291 294 295 293 292 291 288 280 277 274 274 274 274 271 271 271 271 267 265 261 258 255 254 253 251 250 249 249 248 247 250 245 245 242 242 243 242 242 243
277 275 273 274 275 281 283 284 288 291 292 294 292 292 291 288 283 279 278 275 273 270 269 268 266 264 261 258 255 255 254 252 252 251 251 248 248 247 243 245 243 241 242 243 242
288 279 275 275 277 279 282 283 287 287 289 290 291 295 295 293 289 285 282 281 279 275 271 269 267 267 264 263 259 258 255 253 253 253 253 249 252 250 246 246 247 246 244 243 243
314 293 288 282 283 283 283 282 284 287 291 288 292 294 295 296 294 293 292 290 286 281 277 274 274 268 264 261 260 254 255 256 253 251 249 250 252 250 247 241 241 242 242 243 242
347 320 297 290 284 284 286 285 284 284 286 288 291 294 296 296 298 300 297 294 292 289 287 283 277 270 266 260 255 251 250 253 253 249 248 248 247 249 247 242 237 237 239 241 241
1 352 333 307 293 287 285 285 282 282 284 286 289 293 297 298 302 303 300 298 296 295 293 288 280 274 268 263 259 251 249 249 251 252 246 245 244 243 241 240 239 238 234 235 237
7 2 353 342 322 307 296 291 291 288 286 287 291 296 299 301 307 304 305 304 303 301 296 288 282 277 265 262 259 256 251 250 246 248 247 243 238 240 236 233 231 231 231 231 230
6 5 4 358 346 330 312 300 295 293 292 293 296 300 302 309 313 311 313 314 312 307 298 291 285 275 266 260 255 254 250 248 245 245 242 236 233 230 231 227 223 228 229 227 218
5 3 3 0 357 350 338 327 312 299 298 304 305 307 311 314 316 320 319 319 318 315 307 296 284 275 271 266 264 254 250 247 240 236 233 224 220 220 224 226 220 224 225 211 204
3 3 1 360 357 355 347 339 328 319 308 307 311 314 317 319 325 324 326 324 320 324 321 315 301 283 272 266 256 245 223 231 220 224 226 215 207 205 216 218 213 214 209 207 201
0 0 1 358 356 356 352 347 340 337 325 320 319 322 323 327 329 331 333 325 332 337 342 334 322 311 296 267 244 211 193 209 206 204 207 203 206 201 209 217 209 190 199 208 200
356 358 358 358 355 354 355 353 348 343 337 329 327 328 330 334 332 337 334 331 338 348 348 346 348 332 316 294 249 183 190 213 219 201 195 199 202 206 214 202 182 186 196 195 191
Height
10661 10657 10654 10651 10648 10644 10641 10640 10644 10654 10664 10673 10682 10689 10697 10705 10713 10723 10735 10738 10753 10755 10758 10770 10776 10783 10790 10798 10801 10803 10820 10839 10841 10842 10844 10838 10846 10850 10860 10869 10867 10869 10876 10877 10886
10653 10650 10647 10645 10644 10642 10640 10638 10639 10645 10654 10661 10669 10678 10684 10692 10702 10714 10712 10726 10734 10738 10744 10754 10761 10766 10776 10781 10785 10789 10805 10822 10820 10824 10824 10823 10829 10835 10847 10852 10857 10858 10867 10871 10872
10646 10643 10640 10638 10637 10637 10636 10636 10635 10638 10644 10651 10658 10665 10671 10679 10690 10692 10702 10711 10717 10722 10730 10737 10743 10751 10759 10764 10767 10774 10800 10795 10802 10802 10802 10807 10815 10821 10834 10841 10843 10847 10854 10859 10863
10638 10636 10633 10630 10629 10628 10629 10630 10631 10631 10634 10640 10646 10653 10658 10665 10679 10674 10686 10693 10699 10704 10712 10720 10726 10734 10742 10749 10746 10758 10776 10778 10786 10786 10781 10796 10801 10815 10817 10831 10828 10838 10840 10847 10844
10629 10626 10624 10622 10621 10620 10620 10621 10623 10624 10626 10628 10633 10640 10645 10652 10663 10665 10671 10677 10683 10688 10694 10700 10708 10715 10723 10728 10729 10751 10755 10758 10763 10766 10768 10775 10787 10793 10796 10813 10815 10823 10827 10829 10836
10619 10616 10613 10612 10610 10610 10610 10611 10613 10615 10617 10619 10622 10625 10631 10639 10641 10649 10655 10660 10667 10671 10677 10681 10690 10697 10706 10709 10716 10719 10731 10738 10746 10752 10755 10756 10764 10764 10796 10792 10802 10808 10811 10809 10824
10609 10605 10603 10602 10601 10600 10600 10601 10603 10605 10607 10609 10611 10615 10618 10623 10629 10634 10639 10643 10648 10653 10658 10663 10671 10675 10684 10691 10695 10700 10713 10721 10736 10738 10734 10727 10731 10761 10775 10768 10781 10789 10790 10789 10807
10604 10599 10595 10593 10591 10590 10590 10591 10593 10595 10597 10598 10601 10604 10609 10609 10614 10617 10621 10625 10629 10633 10638 10644 10649 10655 10660 10668 10672 10681 10687 10703 10721 10703 10722 10690 10723 10751 10752 10748 10756 10766 10772 10769 10784
10598 10593 10589 10587 10585 10583 10583 10583 10583 10584 10586 10587 10589 10592 10599 10594 10602 10604 10607 10609 10611 10614 10619 10624 10630 10635 10639 10644 10651 10659 10670 10674 10687 10695 10690 10666 10703 10732 10730 10730 10734 10744 10753 10758 10759
10593 10588 10584 10581 10579 10578 10576 10575 10575 10574 10576 10576 10577 10581 10585 10585 10587 10590 10592 10593 10594 10595 10598 10604 10609 10615 10618 10620 10636 10629 10637 10652 10674 10676 10656 10651 10672 10713 10713 10712 10719 10724 10734 10742 10749
10586 10583 10579 10577 10574 10572 10570 10569 10569 10567 10568 10568 10568 10570 10572 10572 10574 10575 10576 10578 10580 10581 10582 10584 10587 10590 10592 10598 10609 10609 10616 10635 10647 10648 10625 10630 10652 10702 10696 10699 10708 10706 10711 10723 10735
10579 10576 10573 10570 10568 10566 10564 10563 10562 10561 10561 10560 10561 10559 10560 10561 10562 10564 10563 10563 10563 10564 10564 10565 10567 10567 10570 10577 10583 10585 10592 10607 10615 10614 10592 10616 10627 10673 10677 10687 10685 10688 10695 10707 10715
10571 10567 10565 10562 10560 10559 10557 10556 10555 10554 10553 10552 10550 10550 10550 10549 10550 10547 10549 10547 10545 10545 10544 10544 10544 10545 10548 10554 10555 10558 10565 10577 10579 10579 10575 10601 10606 10630 10656 10663 10666 10669 10678 10686 10699
10560 10558 10556 10553 10552 10550 10549 10548 10547 10546 10548 10540 10541 10539 10539 10537 10537 10534 10532 10529 10529 10527 10526 10526 10521 10522 10524 10531 10524 10530 10533 10543 10545 10553 10559 10565 10575 10601 10632 10641 10644 10649 10657 10666 10677
10548 10547 10546 10545 10543 10541 10540 10539 10538 10536 10536 10534 10532 10528 10526 10524 10521 10517 10517 10515 10510 10506 10504 10503 10501 10497 10502 10504 10495 10506 10509 10513 10519 10527 10532 10542 10544 10600 10598 10617 10621 10631 10637 10645 10653
10534 10535 10535 10536 10535 10533 10531 10529 10527 10525 10522 10522 10516 10516 10513 10510 10508 10504 10499 10497 10493 10489 10483 10482 10474 10469 10477 10477 10474 10477 10482 10483 10490 10495 10503 10534 10515 10561 10570 10586 10593 10599 10604 10616 10630
10522 10523 10524 10525 10525 10523 10522 10520 10517 10513 10512 10509 10504 10501 10498 10494 10491 10487 10482 10478 10472 10468 10459 10457 10451 10442 10446 10445 10448 10450 10460 10458 10457 10464 10487 10500 10479 10518 10550 10547 10562 10569 10578 10591 10611
10516 10515 10515 10515 10515 10514 10513 10510 10506 10503 10499 10495 10491 10485 10482 10477 10472 10468 10463 10457 10447 10440 10437 10431 10428 10420 10419 10415 10427 10429 10419 10426 10435 10442 10460 10460 10463 10502 10523 10533 10537 10551 10562 10572 10587
10513 10511 10510 10509 10507 10505 10503 10500 10497 10492 10488 10482 10477 10471 10465 10458 10453 10447 10441 10432 10422 10415 10410 10404 10402 10395 10394 10395 10398 10398 10401 10399 10405 10422 10424 10435 10450 10466 10487 10507 10517 10525 10530 10540 10569
10512 10509 10505 10502 10499 10497 10494 10489 10484 10480 10474 10468 10463 10458 10450 10442 10435 10429 10419 10410 10402 10391 10386 10381 10379 10374 10369 10372 10372 10380 10376 10379 10382 10397 10403 10416 10429 10444 10459 10470 10484 10495 10512 10522 10537
10512 10506 10501 10497 10492 10487 10483 10478 10472 10468 10462 10456 10449 10443 10436 10427 10420 10410 10401 10392 10384 10374 10366 10362 10357 10356 10353 10353 10356 10358 10362 10364 10368 10374 10386 10396 10416 10417 10429 10449 10469 10481 10485 10489 10525
10515 10507 10499 10492 10485 10478 10472 10465 10458 10453 10448 10441 10435 10429 10422 10413 10405 10396 10387 10378 10369 10360 10351 10343 10343 10340 10340 10340 10342 10345 10349 10351 10357 10358 10371 10387 10397 10403 10416 10433 10442 10444 10471 10479 10503
10513 10502 10495 10487 10478 10469 10461 10453 10445 10438 10433 10428 10422 10415 10409 10401 10391 10382 10374 10364 10354 10346 10339 10332 10331 10328 10328 10328 10331 10334 10338 10341 10344 10350 10361 10374 10382 10387 10398 10406 10418 10440 10445 10476 10517
10512 10501 10493 10480 10469 10459 10449 10440 10430 10425 10421 10416 10411 10405 10398 10391 10384 10374 10363 10354 10345 10337 10331 10325 10322 10319 10319 10320 10326 10328 10332 10331 10335 10340 10351 10364 10367 10375 10379 10394 10424 10431 10446 10471 10494
10511 10500 10487 10476 10464 10453 10440 10430 10419 10413 10410 10407 10402 10396 10389 10381 10376 10365 10355 10346 10339 10332 10325 10319 10316 10313 10313 10315 10318 10319 10322 10319 10326 10333 10345 10358 10361 10368 10372 10389 10404 10417 10444 10460 10472
10510 10496 10486 10474 10461 10448 10435 10422 10413 10408 10402 10400 10395 10387 10381 10374 10365 10358 10347 10339 10332 10325 10319 10316 10312 10309 10309 10310 10312 10314 10316 10312 10318 10325 10337 10349 10356 10362 10370 10382 10411 10425 10439 10456 10473
10507 10495 10483 10471 10458 10446 10433 10420 10409 10403 10400 10393 10388 10381 10375 10369 10360 10352 10343 10334 10329 10323 10318 10315 10311 10308 10307 10306 10309 10315 10312 10309 10314 10318 10328 10338 10341 10353 10368 10389 10405 10416 10436 10457 10479